Starlink 30224

operational
NORAD ID: 57416 Int'l Des: 2023-102 Owner: SPXS Country: US Constellation: starlink
LEOCIRCULAR

Über Starlink 30224

Beschreibung wird geladen...

Live-Position

3D-Globus wird geladen...

Nächste Überflüge

Höhenverlauf

Altitude vs Time

uPlot chart will show altitude changes over time

Zweizeiliger Elementsatz

1 57416U 23102N 25259.94387270 -.00000690 00000-0 -36053-4 0 9992
2 57416 43.0024 112.6897 0001117 278.4080 81.6636 15.02531023120107
Epoch: 16. Sept. 2025 • Age: 13 hours

Aktueller Status

Höhe 559.6 km
Geschwindigkeit 7.59 km/s
Subsatellitenpunkt 25.37°N, 81.97°E
Startdatum 19. Juli 2023
Alter 2.1 years
Typ internet

Technische Details

Klassifizierung Payload
Masse 730.00 kg
Trockenmasse 700.00 kg
Gesamtmasse 730.00 kg
Länge 0.30 m
Durchmesser 4.10 m
Spannweite 29.00 m
Form Box + pan
Hersteller SPXS
Bus-Typ Starlink V2M
Phasenstatus In Orbit
Besitzer/Staat SPXS/US

Große Konstellationen

Loading constellations...